Flag for U.S.A. Weather past 2 weeks in Riverside, California, U.S.A.

Now
58 °F

Clear.


Feels Like: 58 °F
Forecast: 46 / 74 °F
Wind: 3 mph from East

Location: Riverside Municipal Airport

Current Time: Dec 21, 2014 at 7:18:01 PM

Latest Report: Dec 21, 2014 at 6:53 PM


Visibility: 8 mi

Pressure: 30.04 "Hg

Humidity: 72%

Dew point: 49 °F

Location of RiversideLocation

Historic Weather in Riverside — Graph

°F

Riverside temperature yesterday

Maximum temperature yesterday: 59 °F (at 12:53 PM)
Minimum temperature yesterday: 45 °F (at 6:53 AM)
Average temperature yesterday: 52 °F

Past Weeks' High & Low Weather Summary

 TemperatureHumidityPressure
High80 °F (Dec 9, 2:53 PM)100% (Dec 11, 6:53 AM)30.22 "Hg (Dec 11, 6:53 AM)
Low42 °F (Dec 14, 6:53 AM)20% (Dec 9, 2:53 PM)29.82 "Hg (Dec 12, 4:53 AM)
Average56 °F71%30.05 "Hg
* Reported Dec 6 5:53 PM — Dec 21 5:53 PM, Riverside, Weather by CustomWeather, © 2014

Note: Actual official high and low records may vary slightly from our data, if they occured in-between our weather recording intervals... More about our weather records

Advertising

Riverside weather history for previous 24 hours

 ConditionsComfort  
Time TempWeatherWind HumidityBarometerVisibility
5:53 PM
Dec 21
61 °FClear.No wind65%30.02 "Hg8 mi
4:53 PM62 °FClear.No wind62%30.02 "Hg5 mi
3:53 PM64 °FSunny.3 mph58%30.02 "Hg7 mi
2:53 PM66 °FSunny.No wind52%30.01 "Hg9 mi
1:53 PM65 °FSunny.No wind56%30.02 "Hg9 mi
12:53 PM64 °FSunny.No wind58%30.05 "Hg9 mi
11:53 AM60 °FSunny.No wind67%30.08 "Hg7 mi
10:53 AM59 °FSunny.No wind69%30.11 "Hg7 mi
9:53 AM55 °FSunny.3 mph77%30.13 "Hg5 mi
8:53 AM50 °FFog.5 mph86%30.14 "Hg3 mi
8:00 AM47 °FFog.5 mph90%30.16 "Hg2 mi
6:59 AM44 °FFog.3 mph93%30.14 "Hg2 mi
6:03 AM45 °FFog.No wind93%30.14 "Hg3 mi
5:53 AM44 °FFog.No wind93%30.11 "Hg2 mi
4:53 AM46 °FFog.6 mph93%30.10 "Hg3 mi
3:53 AM47 °FFog.3 mph90%30.09 "Hg4 mi
2:53 AM48 °FFog.6 mph89%30.11 "Hg4 mi
1:53 AM47 °FFog.No wind93%30.12 "Hg4 mi
12:53 AM49 °FFog.6 mph86%30.14 "Hg4 mi
11:53 PM
Dec 20
50 °FFog.No wind86%30.14 "Hg6 mi
10:53 PM51 °FFog.5 mph86%30.13 "Hg5 mi
9:53 PM50 °FFog.5 mph89%30.14 "Hg4 mi
8:53 PM51 °FFog.5 mph86%30.13 "Hg5 mi
7:53 PM52 °FPassing clouds.3 mph83%30.13 "Hg5 mi
Weather by CustomWeather, © 2014

See weather overviewHow to use our weather pages